Flag for Panama Weather past 2 weeks in Panama, Panama

Now
77 °F

Thunderstorms. Partly cloudy.


Feels Like: 78 °F
Forecast: 76 / 86 °F
Wind: 7 mph from South

Location: Panama Airport

Current Time: Aug 27, 2014 at 4:22:14 AM

Latest Report: Aug 27, 2014 at 4:00 AM


Visibility: 6 mi

Pressure: 29.86 "Hg

Humidity: 94%

Dew point: 75 °F

Location of PanamaLocation

Historic Weather in Panama — Graph

°F

Panama temperature yesterday

Maximum temperature yesterday: 84 °F (at 12:00 PM)
Minimum temperature yesterday: 77 °F (at 1:00 AM)
Average temperature yesterday: 80 °F

Past Weeks' High & Low Weather Summary

 TemperatureHumidityPressure
High93 °F (Aug 15, 3:00 PM)100% (Aug 16, 7:00 AM)29.98 "Hg (Aug 16, 7:00 AM)
Low73 °F (Aug 20, 2:00 AM)52% (Aug 14, 1:00 PM)29.71 "Hg (Aug 14, 5:00 PM)
Average81 °F84%29.82 "Hg
* Reported Aug 12 3:00 AM — Aug 27 3:00 AM, Panama, Weather by CustomWeather, © 2014

Note: Actual official high and low records may vary slightly from our data, if they occured in-between our weather recording intervals... More about our weather records

Advertising

Panama weather history for previous 24 hours

 ConditionsComfort  
Time TempWeatherWind HumidityBarometerVisibility
3:00 AM
Aug 27
79 °FLight rain. Partly cloudy.No wind94%29.86 "Hg6 mi
2:00 AM79 °FPartly cloudy.No wind94%29.86 "HgN/A
1:00 AM79 °FPartly cloudy.No wind89%29.86 "HgN/A
12:00 AM79 °FPassing clouds.No wind94%29.89 "HgN/A
11:00 PM
Aug 26
79 °FPassing clouds.No wind94%29.89 "HgN/A
10:00 PM79 °FPassing clouds.No wind94%29.89 "HgN/A
9:00 PM81 °FPassing clouds.No wind89%29.86 "HgN/A
8:00 PM81 °FPartly cloudy.No wind89%29.83 "Hg6 mi
7:00 PM82 °FPartly cloudy.No wind84%29.77 "Hg6 mi
6:00 PM82 °FBroken clouds.3 mph84%29.77 "Hg6 mi
5:00 PM82 °FBroken clouds.No wind84%29.77 "Hg6 mi
4:00 PM84 °FBroken clouds.No wind74%29.80 "Hg5 mi
3:00 PM82 °FThunderstorms. Broken clouds.No wind74%29.83 "Hg6 mi
2:00 PM82 °FThunderstorms. Broken clouds.5 mph84%29.83 "Hg5 mi
1:00 PM84 °FLight rain. Broken clouds.3 mph79%29.86 "Hg6 mi
12:00 PM84 °FScattered showers. Scattered clouds.No wind79%29.89 "Hg6 mi
11:00 AM82 °FBroken clouds.No wind84%29.89 "Hg6 mi
10:00 AM82 °FBroken clouds.No wind84%29.86 "Hg6 mi
9:00 AM81 °FBroken clouds.No wind89%29.86 "Hg6 mi
8:00 AM77 °FBroken clouds.No wind100%29.83 "Hg6 mi
7:00 AM77 °FBroken clouds.No wind94%29.83 "Hg6 mi
6:00 AM77 °FPartly cloudy.No wind94%29.80 "Hg6 mi
5:00 AM77 °FLight rain. Partly cloudy.No wind94%29.80 "Hg6 mi
4:00 AM77 °FLight rain. Passing clouds.No wind94%29.83 "Hg6 mi
Weather by CustomWeather, © 2014

See weather overviewHow to use our weather pages